RH
47 41 40 41 42 40 41 44 61 50 41 33 29 27 27 27 28 30 33 32 34 42 47 53 37 29 31 32 34 34 39 43 51 46 44 45 45 44 44 43 42 39 37 38
79 54 47 53 43 40 39 38 38 39 40 27 26 27 29 34 35 40 38 36 40 52 59 52 35 30 30 30 35 43 49 54 46 44 45 44 43 44 41 38 36 36 38 40
88 56 76 94 69 50 42 33 34 45 37 28 30 33 37 40 41 42 44 44 51 65 59 49 39 32 31 39 51 75 51 48 45 44 44 44 43 41 37 35 36 39 40 42
99 98 92 36 28 28 33 30 30 30 29 34 38 39 42 43 47 71 67 54 73 64 59 49 46 41 47 74 62 55 53 44 40 40 42 44 42 36 35 37 39 41 44 49
100 78 56 47 31 36 44 45 32 34 39 40 45 48 61 48 66 69 61 78 59 62 59 64 70 79 92 92 60 46 38 38 39 41 45 41 36 36 39 41 43 45 51 63
99 99 90 41 32 32 33 52 41 44 46 58 62 89 78 65 62 72 77 58 56 64 76 92 93 90 72 52 39 38 38 40 42 43 40 37 39 41 41 41 44 57 71 76
96 96 69 40 31 34 69 59 51 49 52 59 65 66 63 71 73 70 58 57 68 85 88 74 74 58 43 42 41 36 42 44 43 40 38 41 41 40 40 46 60 75 83 83
100 100 94 31 35 73 64 52 47 51 54 63 67 69 74 79 77 59 55 60 85 93 68 63 61 53 42 34 34 40 44 44 41 42 45 43 40 40 47 54 61 76 79 80
61 61 40 37 42 40 41 48 58 64 51 68 73 70 71 78 62 56 66 86 88 74 71 64 47 40 34 39 41 45 46 44 45 49 48 41 41 47 51 51 67 77 82 80
73 53 44 43 45 46 48 60 46 51 53 54 62 66 75 66 58 60 90 98 87 75 59 45 40 40 37 46 50 46 46 50 54 53 46 45 49 49 50 62 75 75 80 83
76 58 52 57 55 44 49 47 44 49 52 56 67 65 79 69 56 86 98 95 77 62 50 40 39 41 44 47 54 50 54 58 58 53 52 54 55 54 58 70 86 86 86 94
95 67 68 56 40 38 45 54 51 49 41 37 42 61 65 65 85 98 97 88 70 49 42 38 39 43 48 52 53 62 66 66 70 58 57 58 55 56 62 75 80 82 97 98
74 59 55 42 39 40 51 48 33 33 33 34 47 65 77 95 95 81 73 64 48 42 41 42 45 49 52 66 69 96 91 83 66 62 60 59 60 63 80 80 77 82 98 98
44 46 43 43 49 43 35 30 31 32 34 56 77 89 96 77 71 64 61 47 45 44 45 49 51 51 66 72 94 100 99 79 64 66 67 67 69 76 85 82 86 83 90 97
29 35 44 43 38 30 30 31 38 43 53 71 87 91 90 69 62 52 51 57 61 60 56 57 65 66 73 80 92 88 74 64 78 76 74 72 71 69 71 80 77 88 85 88
43 41 36 35 35 32 32 35 53 67 90 91 94 97 84 73 56 50 61 65 74 62 78 73 87 84 89 81 82 71 55 59 71 70 70 65 65 65 70 80 79 90 88 93
45 44 42 42 37 37 41 50 70 98 94 98 95 91 83 81 76 75 66 71 72 75 79 91 98 80 92 88 79 63 59 63 74 69 68 67 66 64 74 83 83 89 92 98
35 35 34 36 38 46 55 64 88 95 80 82 79 75 80 84 86 83 88 80 83 88 92 94 79 90 85 85 80 79 73 75 72 71 69 71 69 69 81 91 89 89 93 96
37 39 38 37 43 60 72 80 91 88 82 79 79 87 78 79 87 88 86 96 95 96 88 80 80 83 99 93 86 80 82 83 80 70 74 72 72 77 82 81 90 93 95 95
46 46 47 48 58 88 96 98 86 81 76 70 72 85 91 89 85 88 97 95 89 81 85 90 91 100 99 93 90 78 81 86 80 72 75 75 77 79 85 86 86 93 93 95
58 57 67 95 100 89 79 76 61 77 71 69 88 92 90 95 98 99 91 75 98 88 84 87 92 85 85 84 88 94 92 88 80 81 79 79 79 80 83 86 88 91 93 95
61 72 82 92 97 90 73 64 73 70 73 82 86 91 96 94 95 92 93 99 99 99 100 99 100 99 97 92 93 99 94 89 83 84 81 79 78 82 81 80 90 86 92 95
63 67 72 98 95 97 89 75 74 78 91 99 100 100 95 86 88 86 84 90 97 98 99 98 97 98 97 96 98 100 97 92 86 86 83 83 86 85 83 82 88 92 90 93
70 73 74 83 99 98 84 78 84 88 96 100 100 93 94 85 90 85 93 96 93 92 92 95 96 98 96 100 99 99 98 95 93 92 86 81 89 85 84 84 85 89 91 91
94 98 98 100 97 68 68 74 90 97 99 98 94 87 86 89 99 96 100 95 94 93 97 99 99 100 100 100 100 100 98 97 94 93 90 88 84 86 88 86 89 91 89 89
98 97 96 99 81 49 52 69 70 77 82 84 85 96 91 92 100 98 96 96 94 92 92 99 100 100 100 100 100 100 99 99 95 92 91 86 86 86 89 90 88 88 89 92
99 99 99 93 67 66 72 78 86 88 96 100 96 94 89 95 91 94 98 92 91 86 90 90 96 100 100 100 100 100 100 99 98 96 93 91 89 88 91 91 90 91 93 96
Wind_Speed
19 22 22 23 26 31 26 26 22 33 30 32 29 27 22 21 19 19 23 24 21 17 19 32 27 22 13 12 13 11 10 11 14 15 14 14 14 17 20 22 23 25 27 29
17 23 21 21 25 30 27 28 29 30 33 24 24 20 21 19 20 25 27 24 22 19 23 26 24 20 12 13 10 15 14 13 13 12 12 14 16 19 21 23 24 26 27 29
7 14 9 11 18 17 16 20 23 20 23 24 21 17 19 25 27 26 25 25 19 19 23 23 23 14 13 12 13 13 11 11 11 10 12 15 18 21 22 24 25 27 28 28
5 4 7 7 23 22 16 19 20 23 21 14 19 24 25 23 22 16 22 20 15 21 25 17 19 15 11 11 10 9 13 10 9 11 13 17 19 22 23 24 25 26 27 27
4 11 21 16 12 19 15 16 19 14 13 21 28 25 19 15 14 16 16 14 26 24 21 9 16 14 12 6 10 14 7 9 9 11 15 18 21 22 24 24 25 26 26 27
5 10 13 10 22 6 12 15 7 11 18 25 23 15 13 11 22 10 16 27 22 18 6 8 12 10 5 9 10 8 8 7 10 13 16 19 21 23 23 24 25 25 27 28
12 10 12 16 16 2 7 12 17 24 22 21 19 17 21 18 12 20 25 26 14 8 10 11 8 7 7 10 11 3 4 8 11 14 17 18 21 22 24 24 24 24 24 26
4 8 10 2 5 3 11 22 26 23 21 23 21 19 16 9 15 18 20 17 11 11 7 4 5 7 9 9 3 1 7 10 13 15 17 19 20 23 23 24 22 22 24 26
11 9 16 24 24 23 24 25 22 23 22 16 19 19 18 13 16 15 11 12 8 6 5 8 6 5 7 3 1 5 9 12 15 16 17 17 20 21 22 22 21 21 22 24
20 17 24 23 26 28 21 19 25 20 20 23 24 20 16 15 15 11 6 6 6 5 8 9 2 1 3 0 4 8 11 13 15 16 16 18 19 19 20 20 22 22 22 23
23 26 26 20 21 20 19 23 22 22 23 20 16 17 11 13 14 7 4 5 4 7 9 7 1 1 1 3 6 10 11 13 14 14 16 18 18 18 20 21 19 23 24 25
14 26 21 28 21 23 19 18 23 24 22 20 16 13 10 11 9 4 6 4 7 9 7 4 2 3 4 6 8 9 11 12 13 14 16 17 19 20 18 19 23 23 22 21
21 25 27 25 20 17 20 22 18 19 20 23 15 12 11 4 3 4 7 8 8 7 3 3 4 6 6 7 9 6 8 10 12 13 15 17 18 19 20 21 20 19 18 20
24 25 21 21 19 22 17 19 23 25 25 13 6 6 6 5 4 7 9 7 5 3 2 4 6 7 6 7 6 6 8 10 11 14 15 16 17 18 18 20 19 21 19 21
19 16 17 20 17 16 20 20 20 18 15 10 7 4 4 5 8 9 5 4 3 2 3 6 7 8 7 6 6 8 9 9 10 12 13 14 15 17 16 18 19 18 20 22
18 17 14 12 15 18 20 21 17 15 11 6 6 6 8 11 9 4 3 4 5 4 4 5 7 7 6 6 8 9 9 7 8 12 13 14 15 16 15 16 17 16 17 20
11 11 13 15 16 19 18 13 10 6 8 6 8 9 7 5 4 4 4 4 4 5 6 6 7 7 5 5 8 10 10 10 10 11 12 13 13 14 13 14 14 15 15 17
8 11 14 16 17 15 11 10 8 7 8 8 8 7 6 5 5 6 5 6 7 9 8 6 6 6 6 6 7 8 8 10 10 11 11 11 12 13 12 13 12 13 13 14
12 14 19 21 18 10 7 6 8 8 7 6 6 5 6 7 6 6 7 7 9 10 4 5 8 8 6 7 7 8 8 9 10 10 10 10 10 10 11 11 12 11 11 13
13 19 21 20 15 4 7 9 7 6 5 5 7 7 6 5 6 7 7 11 12 9 7 6 7 6 7 7 7 7 7 8 9 9 8 9 9 10 9 9 10 10 10 11
12 17 14 11 10 11 10 7 4 5 4 5 5 5 5 6 6 7 10 10 3 6 8 9 8 7 6 6 6 4 6 6 6 7 8 8 8 8 8 8 8 9 10 10
17 12 11 12 8 7 7 7 5 4 4 3 3 4 5 5 6 8 9 10 10 11 11 11 11 10 7 8 5 4 5 5 5 6 6 6 7 7 7 7 7 7 8 9
19 17 14 10 10 7 8 9 6 4 3 2 2 3 5 7 7 9 6 7 11 12 14 15 14 13 12 7 5 5 5 4 5 5 5 5 5 6 6 6 6 6 7 7
19 18 16 12 9 7 7 10 6 5 4 3 4 4 4 5 7 5 8 11 12 15 15 13 12 12 8 5 5 5 5 5 4 4 4 3 3 3 4 4 4 4 5 5
15 18 13 10 9 10 10 6 5 5 4 4 4 3 3 5 6 9 10 12 12 14 13 11 11 5 5 6 5 5 5 5 4 4 3 3 3 3 2 2 3 3 3 4
16 11 11 12 11 10 7 7 7 5 4 4 4 2 6 9 10 11 11 11 12 13 12 10 6 6 7 6 5 5 5 5 4 5 4 3 3 3 2 1 1 1 1 2
11 10 9 8 10 8 6 7 7 6 3 2 3 5 6 8 9 8 8 10 10 11 11 11 10 8 8 7 7 6 6 6 6 5 5 5 4 3 3 2 2 1 1 0
Wind_Direction
275 285 294 287 282 281 284 278 274 281 280 293 302 308 321 326 327 333 327 321 326 333 322 315 312 307 272 243 220 225 234 253 268 257 256 265 275 287 292 292 292 292 291 289
281 288 279 278 277 280 281 277 275 282 289 298 305 318 330 340 329 323 314 318 327 322 316 307 313 302 261 239 240 253 267 268 260 265 261 273 288 294 296 296 296 296 293 292
270 289 336 288 256 262 264 275 281 286 293 317 317 344 340 331 318 318 324 322 320 313 309 308 311 293 260 266 268 279 280 272 265 259 271 287 295 299 300 301 300 297 297 298
279 261 244 263 319 304 299 297 299 300 302 345 336 323 321 322 316 348 322 316 311 302 295 310 306 293 292 294 286 286 269 270 257 267 284 294 300 302 305 305 302 302 303 303
260 263 286 292 268 335 319 304 291 301 339 332 327 321 310 311 342 308 311 303 300 302 303 301 296 302 302 292 271 270 265 263 275 289 298 303 305 307 307 306 305 307 307 306
264 278 290 303 310 342 307 294 23 321 315 320 314 309 317 328 332 340 297 296 315 313 296 291 279 275 233 248 279 278 261 278 291 299 303 307 308 308 307 308 309 311 307 303
246 265 264 277 300 343 286 313 323 311 313 319 315 314 320 330 328 307 303 312 327 312 288 275 240 255 273 273 266 278 274 288 299 306 310 310 307 307 311 314 311 304 305 305
226 236 277 261 282 288 276 305 304 315 319 319 316 314 313 333 307 308 309 324 310 287 275 261 262 276 279 280 57 281 295 303 308 311 312 310 309 312 315 314 310 317 313 310
241 259 282 305 308 307 306 302 333 311 314 323 305 313 310 296 317 313 325 327 293 273 280 282 300 287 281 28 325 302 305 309 312 312 311 313 314 317 316 316 323 318 315 313
269 270 275 295 300 292 311 316 314 316 314 321 317 310 307 313 313 323 343 292 277 289 294 315 292 265 331 327 315 312 311 313 312 313 317 315 320 319 318 323 317 321 318 314
269 275 291 279 280 311 310 296 320 324 317 314 309 313 299 311 317 345 304 287 300 300 311 306 198 235 280 317 316 311 313 310 310 316 317 320 321 321 319 318 323 318 313 315
270 282 284 295 305 318 318 324 322 316 324 319 318 315 318 323 338 305 281 286 290 308 313 295 263 271 297 310 314 315 313 314 318 316 321 322 323 322 323 326 325 322 315 320
266 270 284 297 309 317 328 320 326 325 321 316 329 338 335 313 302 268 270 285 316 317 313 308 299 304 312 300 306 315 311 312 317 321 325 325 326 328 324 328 327 329 332 337
273 275 296 307 314 320 319 327 326 324 327 6 2 323 289 258 267 290 310 344 337 336 320 323 312 311 310 303 301 304 306 306 312 326 324 326 328 320 330 330 332 335 343 348
306 317 313 324 321 325 329 331 331 338 355 347 335 288 270 310 320 332 358 356 353 6 353 330 321 310 306 299 293 300 306 316 330 323 320 321 321 323 334 334 335 337 345 352
327 325 324 326 323 329 333 335 341 345 344 339 7 354 329 318 324 333 359 358 350 346 340 331 326 316 297 292 297 302 307 315 328 323 320 327 329 329 338 337 339 345 355 360
313 331 334 327 326 330 329 339 337 327 325 344 332 320 316 320 306 301 317 329 324 307 302 297 308 316 301 298 308 311 319 321 321 318 329 330 330 331 339 338 342 350 358 6
339 333 326 319 319 315 318 332 321 310 311 331 328 327 323 319 317 320 311 308 309 301 286 269 301 305 310 305 310 318 317 317 318 320 326 332 332 329 343 341 347 353 1 6
337 325 321 314 310 300 303 292 281 299 300 309 316 318 317 308 307 311 309 300 288 278 261 286 299 300 298 293 311 307 310 315 319 322 329 327 332 337 342 349 349 358 9 14
311 313 308 301 300 286 281 276 278 278 290 307 312 313 315 315 315 313 305 290 282 287 286 290 306 302 293 287 304 298 301 312 317 325 330 328 337 336 343 352 358 2 10 21
285 288 279 270 262 274 272 265 266 271 298 306 310 317 317 313 316 318 308 307 352 323 297 298 298 294 293 277 285 284 299 306 311 322 329 335 334 338 346 351 3 9 14 20
278 281 265 258 243 260 254 244 247 273 292 299 308 320 326 315 331 328 317 283 312 321 311 301 294 270 265 273 269 269 284 293 303 313 325 335 339 341 346 348 359 9 16 23
287 280 271 240 220 223 234 229 233 238 253 271 290 311 320 326 327 327 328 333 326 323 319 311 308 290 279 267 259 259 264 270 286 302 315 329 336 341 347 353 352 12 17 22
282 281 275 257 221 212 222 217 209 229 232 247 277 297 311 331 324 315 310 314 323 325 320 319 309 291 276 248 256 257 254 257 262 273 296 309 323 319 339 351 358 13 18 17
295 282 257 219 207 222 226 191 192 209 223 253 287 304 308 303 282 303 314 317 320 327 324 315 315 267 236 254 262 258 251 247 252 255 261 281 296 297 309 337 350 12 19 26
281 251 233 205 211 224 222 199 219 209 224 253 278 253 309 307 302 299 299 307 315 319 313 315 298 270 253 256 257 254 242 235 240 235 245 253 262 262 272 291 324 356 37 52
245 223 203 198 210 233 223 214 205 215 199 249 274 292 305 314 312 308 308 308 318 325 322 312 309 279 266 257 248 241 231 227 222 224 221 231 235 243 237 234 226 207 187 114